Wind_Speed
14 16 15 15 16 17 20 24 26 29 28 29 31 29 27 25 23 22 21 18 17 16 14 12 13 13 12 12 10 9 8 6 4 2 2 3 5 6 9 7 6 7 8
14 15 16 15 15 18 19 20 26 27 26 27 28 27 25 23 22 20 17 16 14 13 10 9 10 9 7 7 7 6 6 5 4 3 3 3 5 7 9 6 5 7 8
13 14 15 15 14 17 19 22 26 26 27 26 25 25 23 22 20 18 14 13 12 11 8 7 7 6 5 4 5 5 6 6 5 5 4 5 6 8 9 8 6 7 8
13 13 14 15 15 17 19 22 25 26 26 26 25 24 22 21 19 17 14 12 10 10 8 9 9 8 6 6 7 7 7 7 7 7 6 5 5 6 7 8 9 7 7
13 15 15 15 16 18 19 21 22 23 25 23 23 22 21 19 17 14 13 11 12 12 12 13 14 13 11 9 8 8 9 10 8 10 8 6 7 6 6 5 5 4 5
14 15 15 16 16 19 20 20 20 21 22 22 21 20 19 17 16 14 13 12 14 16 15 15 17 16 13 11 10 10 9 9 9 11 9 7 6 6 6 5 5 5 5
12 16 16 15 17 18 19 21 20 20 20 21 19 17 17 15 14 13 14 15 15 17 16 15 16 17 16 15 14 11 10 10 9 10 10 7 5 5 4 5 4 5 5
14 16 17 16 18 18 18 18 20 20 19 19 18 16 15 13 13 13 17 16 16 17 16 15 15 16 16 16 17 15 12 11 9 9 11 11 9 5 2 2 3 4 5
15 15 17 17 19 18 15 14 18 20 20 19 17 15 14 11 14 15 16 16 16 17 15 15 15 15 17 16 15 14 12 12 10 9 9 11 10 7 4 2 1 2 3
11 13 15 17 18 17 18 12 16 19 21 20 18 15 13 12 14 15 16 17 16 15 14 13 13 13 13 13 12 14 16 11 7 11 8 7 8 7 6 5 4 1 2
6 11 14 16 19 18 18 13 14 19 22 21 18 15 13 14 15 15 17 16 15 13 11 11 10 10 11 5 8 8 6 8 6 10 11 11 9 5 4 4 5 5 3
8 5 11 15 17 18 18 14 14 13 20 22 18 15 14 15 15 17 18 16 13 10 9 8 7 4 1 3 4 4 2 2 4 6 9 10 9 6 5 4 3 4 3
7 7 8 15 18 18 20 16 13 15 25 23 19 15 15 15 13 15 18 15 13 11 8 6 3 0 1 0 3 3 3 5 2 1 6 2 5 5 5 6 4 3 4
3 5 3 15 17 18 20 18 13 20 25 21 19 16 15 14 13 15 16 16 13 10 8 5 3 2 4 6 6 5 5 7 4 4 6 11 7 3 6 6 6 6 5
5 7 1 14 15 18 22 17 14 17 23 20 18 17 16 16 16 16 15 14 13 12 9 6 5 6 6 7 7 8 7 8 6 6 7 11 7 6 6 5 6 7 8
4 9 9 11 16 17 16 16 17 20 22 21 16 15 19 16 14 14 13 13 11 10 11 7 4 4 3 4 10 10 7 7 12 9 12 9 11 9 4 4 6 9 9
4 7 11 10 11 17 15 17 20 23 23 20 17 13 20 18 13 14 13 10 11 13 8 5 1 2 4 9 9 11 10 10 11 13 12 11 11 11 16 9 9 9 15
5 3 7 4 11 18 17 16 19 23 22 23 19 15 22 19 15 10 13 10 10 6 1 3 5 4 6 9 8 8 9 10 9 15 10 15 9 17 24 9 14 14 13
6 5 5 7 10 18 18 16 18 19 20 22 20 18 20 17 15 15 11 7 4 2 5 4 4 3 3 5 7 10 11 11 11 8 10 11 7 10 14 12 12 13 13
9 5 9 19 18 15 13 14 19 16 18 20 21 22 19 16 13 9 12 8 6 7 5 5 4 1 4 5 7 10 10 7 7 6 6 7 11 9 9 9 9 6 8
8 6 10 15 19 17 13 11 15 22 14 13 19 20 19 13 11 11 8 7 7 8 7 4 2 2 3 4 4 5 5 7 7 8 8 7 8 6 6 15 10 7 8
7 8 8 11 10 12 12 15 16 17 16 18 18 17 16 14 11 11 9 7 6 7 5 4 4 4 8 8 5 6 7 9 12 9 8 9 11 9 9 11 8 6 9
6 3 4 9 10 8 11 15 25 20 17 24 22 14 13 12 11 10 8 5 5 3 3 5 6 6 9 11 9 9 8 7 6 8 9 10 12 13 13 9 10 7 9
7 5 6 7 15 11 14 18 16 13 17 20 9 8 9 9 8 7 6 6 5 4 5 7 7 8 10 10 12 10 10 11 12 10 9 10 13 15 15 9 3 10 10
7 9 10 11 11 11 14 15 14 15 16 11 10 9 8 6 5 6 6 5 6 8 8 9 9 10 9 10 11 13 13 15 17 18 16 12 10 15 16 9 7 2 2
9 11 12 12 13 13 10 9 7 7 9 11 9 10 6 7 4 3 2 6 9 12 12 10 10 12 10 11 12 13 13 15 16 19 18 16 14 10 10 11 9 7 6
Wind_Direction
111 110 108 114 117 116 119 120 125 130 128 128 132 131 131 132 131 130 129 128 125 122 113 111 121 125 132 135 137 142 146 154 154 143 112 128 132 142 145 134 128 132 131
111 113 115 121 125 120 127 128 130 135 131 134 134 133 133 132 130 128 128 124 123 118 112 116 126 131 137 142 149 159 163 180 200 193 143 140 145 148 156 147 152 136 139
118 121 123 124 127 128 130 133 136 137 138 139 136 134 133 130 127 124 123 119 117 112 110 118 122 132 145 156 164 169 173 165 160 153 136 142 151 139 147 153 142 132 144
134 130 127 129 132 135 135 138 139 140 141 140 139 137 134 132 128 125 122 116 111 105 103 104 101 101 110 124 128 136 147 146 141 127 138 140 153 142 143 165 168 143 157
147 142 133 135 137 140 137 144 144 144 144 142 142 140 138 136 131 126 121 112 105 103 101 103 98 95 95 103 115 115 121 121 128 135 140 151 150 157 159 164 166 150 168
148 147 144 143 145 147 144 150 148 151 147 147 145 142 139 138 132 130 122 117 113 109 105 103 98 92 92 99 104 105 111 126 133 129 137 137 144 149 150 156 154 161 164
147 151 148 148 152 152 151 154 155 154 153 151 149 146 141 140 134 131 123 119 117 110 105 102 99 96 93 97 100 105 104 122 121 118 114 112 112 119 132 148 161 165 184
139 150 151 153 155 154 153 154 157 159 158 156 153 150 144 140 133 131 125 122 120 115 112 108 102 99 93 89 90 91 104 112 114 115 112 103 94 95 90 118 163 179 186
130 149 161 158 158 157 150 154 163 165 164 164 160 154 141 135 129 130 126 125 122 118 118 116 107 100 92 85 95 101 109 97 92 87 93 97 90 79 80 55 10 227 215
131 149 163 164 165 165 161 158 173 178 173 169 165 155 143 135 135 133 129 127 125 123 122 116 112 102 89 79 64 91 101 82 68 50 44 64 92 80 52 52 48 352 239
121 155 165 170 171 171 170 169 176 199 176 172 166 155 146 140 140 136 132 128 126 128 126 122 116 110 82 85 71 65 58 79 49 67 51 36 21 43 50 22 10 16 14
93 150 171 174 177 176 172 180 174 160 184 167 167 160 156 152 149 142 136 134 130 137 138 136 129 119 65 67 91 58 153 7 82 41 13 26 18 358 351 4 343 317 320
70 88 168 174 177 177 181 187 190 176 166 168 169 165 162 153 156 152 145 142 139 140 148 142 113 105 22 134 175 277 282 309 255 78 334 345 346 330 322 329 314 297 304
35 54 151 180 181 175 177 174 168 159 164 171 167 172 171 164 165 170 157 153 150 152 161 158 155 277 292 263 250 260 300 273 263 190 286 274 287 289 313 310 305 298 294
42 12 138 182 177 175 181 181 187 174 169 171 171 169 164 177 180 184 173 165 165 171 174 166 200 223 255 286 310 302 304 280 309 261 305 315 284 265 294 300 302 303 294
47 34 98 137 163 170 180 185 193 179 176 179 181 172 181 176 183 193 187 178 178 191 189 184 218 266 290 311 319 280 286 286 299 302 287 276 267 282 267 274 297 306 288
43 63 95 113 138 165 167 179 174 176 183 182 187 189 194 191 192 208 203 191 192 203 187 184 190 346 262 302 309 302 269 256 277 281 294 284 269 274 271 263 264 284 279
54 84 74 122 163 152 149 153 171 180 184 185 188 188 189 181 195 197 201 194 216 210 108 2 288 318 284 282 318 292 275 259 272 282 279 311 295 302 294 300 278 286 269
83 99 70 74 168 169 168 157 162 172 186 190 195 190 185 198 204 191 181 196 229 247 213 286 279 305 290 305 309 313 283 278 272 284 273 293 287 321 333 293 311 297 266
106 122 105 83 99 137 165 175 181 169 171 182 192 187 186 188 195 195 203 226 243 288 245 227 231 245 341 321 295 329 316 321 308 286 267 299 295 296 323 332 282 280 267
96 131 132 102 97 92 94 173 179 189 184 179 170 177 195 191 200 205 222 217 231 239 238 244 304 338 308 13 346 328 321 329 346 353 327 327 320 325 285 316 338 328 348
109 145 109 151 115 116 101 102 151 171 186 186 171 156 173 198 207 207 219 226 228 229 224 249 268 280 304 325 330 302 296 313 329 343 328 317 317 307 296 313 319 336 334
110 116 162 129 155 156 133 107 105 95 156 142 145 154 177 189 185 192 206 214 220 217 240 249 257 302 301 309 310 314 310 314 309 317 332 319 307 309 313 308 325 332 323
113 142 138 151 150 150 135 133 139 120 115 143 156 174 172 163 167 174 189 208 230 249 264 270 285 289 293 295 299 314 316 317 313 305 295 291 295 290 284 281 33 351 328
127 136 139 158 139 131 126 128 144 149 145 155 158 157 141 138 164 191 210 235 258 269 262 266 278 292 303 305 295 308 310 313 311 312 315 305 309 283 271 258 254 306 260
140 139 150 160 160 156 137 120 121 144 139 147 145 137 142 150 88 150 323 299 298 291 280 282 288 298 298 301 298 302 296 295 300 299 303 310 318 294 265 247 274 290 293
Height
3175 3175 3176 3177 3179 3180 3181 3181 3182 3184 3186 3188 3190 3191 3194 3196 3198 3200 3201 3203 3204 3205 3206 3207 3208 3208 3209 3209 3209 3209 3210 3211 3211 3211 3212 3211 3210 3211 3211 3212 3213 3213 3212
3177 3177 3178 3179 3181 3182 3183 3185 3185 3187 3188 3191 3193 3194 3197 3199 3201 3202 3204 3205 3206 3207 3208 3209 3209 3209 3210 3210 3210 3210 3211 3211 3212 3212 3212 3212 3212 3212 3213 3213 3214 3214 3213
3178 3179 3179 3181 3183 3184 3185 3186 3188 3190 3191 3193 3195 3197 3199 3201 3203 3205 3207 3207 3208 3209 3210 3210 3210 3210 3210 3210 3210 3211 3211 3212 3212 3213 3213 3213 3213 3213 3213 3214 3215 3214 3214
3178 3180 3181 3183 3184 3186 3187 3189 3190 3192 3194 3195 3197 3198 3201 3203 3205 3207 3209 3209 3210 3210 3211 3211 3211 3211 3211 3211 3211 3212 3212 3212 3213 3214 3214 3214 3215 3215 3214 3215 3215 3214 3214
3179 3181 3183 3184 3186 3187 3189 3192 3193 3194 3196 3198 3199 3201 3203 3205 3207 3209 3210 3211 3211 3212 3212 3212 3212 3212 3213 3213 3213 3212 3213 3214 3214 3214 3214 3214 3215 3215 3215 3215 3215 3215 3215
3179 3182 3184 3185 3187 3189 3190 3193 3195 3197 3198 3200 3202 3204 3206 3208 3209 3211 3211 3212 3213 3213 3213 3214 3214 3214 3214 3214 3214 3214 3214 3215 3215 3215 3215 3215 3215 3215 3216 3215 3215 3215 3215
3180 3182 3185 3186 3188 3190 3191 3193 3195 3198 3200 3202 3204 3206 3207 3209 3211 3212 3212 3214 3215 3215 3215 3216 3216 3216 3216 3216 3215 3216 3216 3216 3216 3216 3216 3216 3216 3216 3216 3215 3215 3215 3216
3182 3183 3185 3186 3189 3191 3193 3191 3196 3199 3202 3204 3206 3208 3209 3211 3212 3213 3213 3215 3217 3217 3217 3218 3218 3218 3218 3218 3218 3218 3218 3218 3218 3218 3217 3216 3217 3217 3217 3216 3216 3215 3214
3183 3184 3185 3187 3189 3191 3194 3194 3198 3200 3202 3205 3207 3209 3210 3213 3213 3215 3215 3216 3218 3218 3218 3218 3219 3219 3219 3219 3219 3219 3220 3221 3222 3221 3219 3217 3217 3217 3217 3216 3216 3215 3215
3184 3185 3186 3187 3189 3191 3193 3195 3199 3201 3203 3205 3208 3210 3212 3213 3214 3215 3216 3217 3218 3220 3219 3219 3220 3220 3221 3220 3220 3221 3223 3224 3224 3222 3222 3220 3218 3217 3218 3218 3217 3215 3215
3186 3185 3186 3188 3189 3191 3193 3194 3196 3200 3202 3206 3209 3211 3213 3213 3215 3216 3216 3218 3219 3220 3221 3220 3222 3222 3222 3222 3221 3222 3222 3222 3222 3222 3221 3221 3220 3219 3218 3218 3218 3217 3215
3186 3186 3186 3187 3189 3191 3193 3195 3196 3197 3202 3206 3209 3212 3213 3213 3215 3215 3217 3218 3220 3222 3222 3222 3222 3223 3223 3222 3222 3221 3221 3220 3220 3220 3221 3220 3220 3220 3220 3218 3217 3217 3217
3187 3185 3185 3186 3188 3191 3193 3195 3196 3196 3199 3206 3209 3212 3213 3215 3216 3217 3216 3219 3220 3222 3223 3223 3224 3224 3223 3222 3222 3220 3219 3219 3219 3218 3218 3218 3219 3219 3219 3218 3217 3216 3216
3188 3186 3185 3185 3187 3190 3192 3195 3196 3197 3201 3205 3208 3211 3213 3215 3217 3218 3218 3218 3221 3222 3223 3224 3224 3224 3224 3223 3222 3221 3219 3218 3217 3217 3217 3216 3217 3215 3215 3215 3216 3216 3215
3188 3186 3183 3183 3186 3188 3192 3194 3197 3200 3203 3205 3208 3210 3213 3214 3217 3218 3218 3220 3220 3221 3222 3222 3222 3223 3223 3223 3221 3220 3218 3216 3215 3216 3215 3215 3213 3212 3212 3213 3213 3214 3213
3189 3187 3184 3183 3186 3189 3192 3193 3196 3199 3202 3205 3207 3210 3213 3216 3218 3219 3219 3220 3221 3222 3222 3222 3222 3223 3222 3222 3222 3220 3218 3216 3213 3213 3212 3213 3213 3211 3210 3210 3210 3211 3210
3191 3189 3187 3187 3187 3188 3191 3193 3195 3198 3202 3205 3207 3210 3213 3216 3217 3218 3219 3220 3221 3222 3222 3221 3221 3221 3221 3220 3219 3218 3216 3215 3213 3213 3211 3211 3211 3210 3206 3211 3206 3205 3206
3192 3191 3191 3190 3189 3189 3192 3193 3194 3197 3200 3203 3207 3209 3211 3215 3217 3218 3220 3221 3222 3222 3222 3222 3221 3221 3221 3219 3218 3217 3216 3215 3212 3210 3210 3210 3209 3207 3205 3203 3203 3202 3204
3194 3193 3192 3189 3186 3190 3192 3193 3195 3197 3199 3202 3205 3209 3212 3215 3217 3218 3220 3222 3223 3224 3223 3221 3221 3221 3220 3217 3216 3214 3214 3212 3210 3209 3208 3207 3205 3205 3201 3199 3199 3197 3201
3195 3194 3194 3191 3188 3191 3193 3194 3195 3197 3199 3202 3204 3207 3212 3215 3217 3218 3220 3222 3222 3223 3223 3221 3220 3219 3217 3216 3215 3213 3212 3211 3210 3208 3207 3207 3204 3203 3201 3199 3199 3198 3197
3196 3196 3197 3195 3193 3194 3194 3194 3195 3199 3201 3202 3205 3209 3212 3216 3218 3220 3221 3221 3221 3222 3222 3222 3220 3219 3218 3216 3214 3213 3212 3211 3210 3208 3205 3204 3203 3202 3200 3199 3197 3195 3194
3196 3198 3198 3197 3198 3196 3197 3196 3196 3199 3202 3204 3207 3211 3215 3217 3218 3219 3220 3221 3222 3223 3222 3221 3221 3220 3218 3216 3215 3213 3212 3211 3208 3207 3205 3203 3202 3201 3198 3196 3194 3194 3193
3195 3196 3198 3199 3200 3200 3200 3201 3200 3201 3201 3204 3208 3214 3216 3218 3218 3219 3221 3222 3222 3221 3221 3221 3220 3219 3218 3215 3214 3212 3210 3209 3208 3206 3204 3202 3200 3197 3195 3194 3191 3190 3189
3196 3197 3198 3199 3202 3201 3202 3203 3204 3206 3207 3209 3212 3215 3217 3219 3219 3220 3222 3222 3221 3220 3219 3219 3219 3218 3217 3214 3212 3209 3208 3206 3204 3204 3203 3200 3198 3195 3193 3191 3189 3189 3187
3198 3200 3200 3201 3203 3204 3205 3205 3206 3207 3211 3211 3214 3216 3218 3219 3221 3221 3220 3219 3218 3218 3215 3214 3215 3214 3213 3213 3210 3208 3206 3202 3199 3197 3197 3197 3195 3191 3189 3189 3187 3186 3187
3201 3201 3202 3202 3206 3207 3208 3208 3209 3209 3212 3214 3216 3218 3219 3219 3220 3220 3220 3219 3219 3217 3215 3213 3211 3209 3208 3209 3208 3206 3204 3201 3198 3194 3193 3193 3191 3188 3187 3187 3186 3185 3185